Location: Newark
(34.6501°N, 117.8502°W)
Time: 06:11:59
(UTC+00:00)

Tiangong - Visible Passes

Search period start: 18 September 2021 00:00
Search period end: 28 September 2021 00:00
Orbit: 380 x 385 km, 41.5° (Epoch: 17 September)

Date Brightness Start Highest point End Pass type
(mag) Time Alt. Az. Time Alt. Az. Time Alt. Az.
23 Sep 2.7 13:02:49 10° SSW 13:05:43 32° SSE 13:08:37 10° E visible
24 Sep 3.4 12:06:08 16° SSE 12:07:00 17° SE 12:09:12 10° E visible
25 Sep 1.3 12:42:59 20° SW 12:45:01 66° SSE 12:48:13 10° ENE visible
26 Sep 3.0 11:47:38 28° ESE 11:47:38 28° ESE 11:49:37 10° E visible
27 Sep 1.2 12:24:44 50° WNW 12:25:20 64° NNW 12:28:31 10° ENE visible
